Startpagina
METAR-TAF:

METAR-TAF

Vliegvelden :

Yellowstone Airport

West Yellowstone, Montana, Verenigde Staten

breedte: 44-39N, lengte: 111-06W, hoogte: 2031 m

Actueel weer

Dit bericht is 31 minuten geleden gemaakt, om 18:30 UTC
Wind 6 kt uit variabele richting
Temperatuur 9°C
Vochtigheid 21%
Druk 1022 hPa
Zicht: 16.1 km
Onbewolkt

METAR: KWYS 251830Z AUTO VRB06KT 10SM CLR 09/M12 A3019 RMK AO2

Tijdstip: 13:01 (19:01 UTC)


TAF: ontbreekt

Waarnemingen en weersverwachtingen van meer dan 4000 vliegvelden (METAR en TAF).

De beschikbare stations zijn de gele en rode punten op de kaart.

Ga met uw muis naar het station om de naam te zien.

Klik dan om waarnemingen en weersverwachtingen te zien.

kaart wijzigen: klik op de groene knoppen met een zwart kruis om in te zoomen, op de groene knop met een streepje om uit te zoomen of op de groene pijlen voor aangrenzende kaarten.


METAR-TAF: